Flag for United Kingdom Weather past 2 weeks in Luton, England, United Kingdom

Now
54 °F

Clear.


Feels Like: 54 °F
Forecast: 64 / 85 °F
Wind: 2 mph from North

Location: Luton Airport

Current Time: Jun 30, 2015 at 4:30:21 AM

Latest Report: Jun 30, 2015 at 3:50 AM


Visibility: 10 mi

Pressure: 30.15 "Hg

Humidity: 88%

Dew point: 50 °F

Location of LutonLocation

Historic Weather in Luton — Graph

°F

Luton temperature yesterday

Maximum temperature yesterday: 75 °F (at 3:20 PM)
Minimum temperature yesterday: 54 °F (at 3:50 AM)
Average temperature yesterday: 65 °F

Past Weeks' High & Low Weather Summary

 TemperatureHumidityPressure
High77 °F (Jun 26, 2:20 PM)100% (Jun 15, 5:50 AM)30.30 "Hg (Jun 15, 5:50 AM)
Low46 °F (Jun 15, 5:50 AM)38% (Jun 27, 2:50 PM)29.77 "Hg (Jun 22, 11:50 AM)
Average61 °F73%30.10 "Hg
* Reported Jun 15 3:20 AM — Jun 30 3:20 AM, Luton, Weather by CustomWeather, © 2015

Note: Actual official high and low records may vary slightly from our data, if they occured in-between our weather recording intervals... More about our weather records

Advertising

Luton weather history for previous 24 hours

 ConditionsComfort  
Time TempWeatherWind HumidityBarometerVisibility
3:20 AM
Tue, Jun 30
55 °FClear.3 mph88%30.15 "Hg10 mi
2:50 AM57 °FCool.6 mph88%30.15 "HgN/A
2:20 AM55 °FClear.5 mph88%30.15 "Hg10 mi
1:50 AM59 °FClear.5 mph82%30.15 "Hg10 mi
1:20 AM59 °FCool.5 mph82%30.15 "HgN/A
12:50 AM57 °FClear.2 mph82%30.15 "Hg10 mi
12:20 AM57 °FClear.2 mph82%30.18 "Hg10 mi
11:50 PM
Mon, Jun 29
63 °FClear.3 mph73%30.18 "Hg10 mi
11:20 PM61 °FClear.3 mph77%30.18 "Hg10 mi
10:20 PM61 °FSunny.No wind72%30.15 "Hg10 mi
9:50 PM64 °FSunny.No wind64%30.15 "Hg10 mi
9:20 PM64 °FSunny.3 mph64%30.15 "Hg10 mi
8:50 PM66 °FSunny.5 mph60%30.15 "Hg10 mi
8:20 PM72 °FSunny.7 mph50%30.15 "Hg10 mi
7:50 PM72 °FSunny.6 mph50%30.15 "Hg10 mi
7:20 PM75 °FPassing clouds.6 mph44%30.15 "HgN/A
6:50 PM75 °FPassing clouds.6 mph44%30.15 "HgN/A
6:20 PM75 °FPassing clouds.6 mph44%30.15 "HgN/A
5:50 PM75 °FPassing clouds.8 mph44%30.15 "HgN/A
5:20 PM75 °FPassing clouds.7 mph44%30.15 "HgN/A
4:50 PM73 °FPassing clouds.8 mph47%30.18 "HgN/A
4:20 PM73 °FPassing clouds.10 mph44%30.18 "HgN/A
3:50 PM73 °FPassing clouds.7 mph47%30.18 "HgN/A
3:20 PM75 °FPassing clouds.9 mph44%30.18 "HgN/A
2:50 PM73 °FScattered clouds.7 mph47%30.18 "HgN/A
2:20 PM73 °FPassing clouds.7 mph47%30.18 "HgN/A
1:50 PM73 °FPassing clouds.9 mph47%30.18 "HgN/A
1:20 PM72 °FPassing clouds.7 mph50%30.18 "HgN/A
12:50 PM72 °FSunny.9 mph53%30.18 "Hg10 mi
12:20 PM70 °FPassing clouds.8 mph53%30.18 "HgN/A
11:50 AM70 °FPassing clouds.6 mph53%30.18 "HgN/A
11:20 AM70 °FPassing clouds.5 mph53%30.18 "HgN/A
10:50 AM68 °FPassing clouds.7 mph56%30.18 "HgN/A
10:20 AM68 °FPassing clouds.6 mph56%30.18 "HgN/A
9:50 AM66 °FPassing clouds.6 mph60%30.18 "HgN/A
9:20 AM66 °FPassing clouds.6 mph64%30.18 "HgN/A
8:50 AM64 °FPassing clouds.6 mph68%30.18 "HgN/A
8:20 AM63 °FPassing clouds.7 mph73%30.18 "HgN/A
7:50 AM61 °FSunny.7 mph77%30.15 "Hg10 mi
7:20 AM59 °FSunny.8 mph82%30.15 "Hg10 mi
6:50 AM59 °FSunny.5 mph82%30.15 "Hg10 mi
6:20 AM57 °FSunny.8 mph82%30.15 "Hg10 mi
5:50 AM54 °FSunny.9 mph94%30.15 "Hg10 mi
5:20 AM54 °FClear.8 mph94%30.15 "Hg10 mi
4:20 AM54 °FClear.7 mph94%30.15 "Hg10 mi
Weather by CustomWeather, © 2015

See weather overviewHow to use our weather pages